GW0143 Weather Reports


Display with metric or nautical units.
time (UTC)temp
F
wind
direction
speed
MPH
gust
MPH
rain 1hr
in
rain 24hr
in
rain mn
in
humidity
%
barometer
mb
20260510225537 59 204 12.0 17.0 0.00 0.00 0.00 45 1023.2
20260510224538 59 215 9.0 14.0 0.00 0.00 0.00 44 1023.1
20260510223518 59 214 9.0 14.0 0.00 0.00 0.00 44 1023.1
20260510222518 59 213 11.0 16.0 0.00 0.00 0.00 43 1023.1
20260510221518 59 179 9.0 15.0 0.00 0.00 0.00 42 1023.2
20260510220558 60 200 9.0 18.0 0.00 0.00 0.00 42 1023.2
20260510215519 59 198 9.0 14.0 0.00 0.00 0.00 43 1023.3
20260510214519 59 187 10.0 15.0 0.00 0.00 0.00 44 1023.3
20260510213519 59 190 12.0 20.0 0.00 0.00 0.00 43 1023.4
20260510212519 60 199 12.0 18.0 0.00 0.00 0.00 43 1023.4
20260510211520 60 201 12.0 18.0 0.00 0.00 0.00 41 1023.2
20260510210540 60 207 8.0 16.0 0.00 0.00 0.00 43 1023.3
20260510205517 60 209 10.0 19.0 0.00 0.00 0.00 42 1023.4
20260510204517 60 227 6.0 11.0 0.00 0.00 0.00 42 1023.4
20260510203540 61 153 2.0 5.0 0.00 0.00 0.00 24 1023.4
20260510202521 61 356 3.0 7.0 0.00 0.00 0.00 26 1023.5
20260510201521 60 48 4.0 11.0 0.00 0.00 0.00 29 1023.4
20260510200541 59 243 4.0 8.0 0.00 0.00 0.00 34 1023.6
20260510195521 59 292 5.0 8.0 0.00 0.00 0.00 36 1023.6
20260510194521 59 247 4.0 9.0 0.00 0.00 0.00 37 1023.6
20260510193518 58 338 5.0 12.0 0.00 0.00 0.00 38 1023.7
20260510192521 57 283 6.0 10.0 0.00 0.00 0.00 40 1023.7
20260510191519 57 338 6.0 11.0 0.00 0.00 0.00 41 1023.7
20260510190543 57 334 4.0 8.0 0.00 0.00 0.00 42 1023.8
20260510185522 55 267 5.0 10.0 0.00 0.00 0.00 45 1023.9
20260510184542 56 324 4.0 9.0 0.00 0.00 0.00 43 1024.0
20260510183522 55 356 5.0 8.0 0.00 0.00 0.00 45 1024.0
20260510182523 54 302 4.0 8.0 0.00 0.00 0.00 47 1024.1
20260510181517 54 315 4.0 8.0 0.00 0.00 0.00 47 1024.3
20260510180517 53 240 4.0 8.0 0.00 0.00 0.00 49 1024.3
20260510175537 52 239 4.0 11.0 0.00 0.00 0.00 50 1024.5
20260510174523 52 294 5.0 9.0 0.00 0.00 0.00 51 1024.5
20260510173544 52 26 3.0 7.0 0.00 0.00 0.00 51 1024.5
20260510172523 51 335 5.0 8.0 0.00 0.00 0.00 52 1024.6
20260510171518 51 357 5.0 8.0 0.00 0.00 0.00 54 1024.5
20260510170518 50 351 3.0 7.0 0.00 0.00 0.00 55 1024.5
20260510165539 50 317 3.0 6.0 0.00 0.00 0.00 55 1024.6
20260510164519 49 347 7.0 9.0 0.00 0.00 0.00 57 1024.6
20260510163518 48 349 4.0 8.0 0.00 0.00 0.00 61 1024.7
20260510162539 47 16 6.0 9.0 0.00 0.00 0.00 63 1024.7
20260510161519 46 312 4.0 8.0 0.00 0.00 0.00 65 1024.7
20260510160520 46 309 6.0 9.0 0.00 0.00 0.00 68 1024.8
20260510155540 46 308 3.0 7.0 0.00 0.00 0.00 66 1024.7
20260510154520 47 3 3.0 5.0 0.00 0.00 0.00 67 1024.7
20260510153543 47 150 2.0 4.0 0.00 0.00 0.00 67 1024.7
20260510152523 46 327 2.0 4.0 0.00 0.00 0.00 68 1024.7
20260510151543 45 310 2.0 4.0 0.00 0.00 0.00 70 1024.6
20260510150521 44 200 5.0 8.0 0.00 0.00 0.00 75 1024.5
20260510145520 42 206 2.0 4.0 0.00 0.00 0.00 79 1024.5
20260510144521 42 190 5.0 10.0 0.00 0.00 0.00 80 1024.6
20260510143521 41 182 5.0 6.0 0.00 0.00 0.00 83 1024.6
20260510142541 40 174 5.0 8.0 0.00 0.00 0.00 85 1024.6
20260510141521 40 197 4.0 6.0 0.00 0.00 0.00 85 1024.6
20260510140524 40 190 3.0 4.0 0.00 0.00 0.00 86 1024.6
20260510135521 39 198 4.0 6.0 0.00 0.00 0.00 87 1024.6
20260510134522 39 203 5.0 7.0 0.00 0.00 0.00 87 1024.6
20260510133522 39 189 4.0 6.0 0.00 0.00 0.00 87 1024.6
20260510132556 39 190 5.0 7.0 0.00 0.00 0.00 88 1024.4
20260510131517 38 185 7.0 10.0 0.00 0.00 0.00 88 1024.2
20260510130523 38 195 6.0 9.0 0.00 0.00 0.00 89 1024.1
20260510125523 38 201 7.0 9.0 0.00 0.00 0.00 90 1024.0
20260510124518 37 195 7.0 9.0 0.00 0.00 0.00 92 1023.9
20260510123537 37 200 7.0 9.0 0.00 0.00 0.00 92 1023.9
20260510122538 37 195 7.0 10.0 0.00 0.00 0.00 92 1023.8
20260510121517 37 207 6.0 9.0 0.00 0.00 0.00 91 1023.7
20260510120518 37 208 7.0 9.0 0.00 0.00 0.00 91 1023.7
20260510115518 38 209 6.0 9.0 0.00 0.00 0.00 90 1023.6
20260510114518 38 215 6.0 9.0 0.00 0.00 0.00 90 1023.6
20260510113519 38 209 6.0 8.0 0.00 0.00 0.00 90 1023.6
20260510112518 38 210 6.0 9.0 0.00 0.00 0.00 90 1023.6
20260510111539 38 209 7.0 10.0 0.00 0.00 0.00 89 1023.6
20260510110519 38 208 8.0 11.0 0.00 0.00 0.00 89 1023.4
20260510105539 38 217 7.0 10.0 0.00 0.00 0.00 89 1023.4
20260510104516 37 218 8.0 10.0 0.00 0.00 0.00 89 1023.5
20260510103519 38 222 7.0 11.0 0.00 0.00 0.00 89 1023.4
20260510102521 38 218 8.0 11.0 0.00 0.00 0.00 89 1023.4
20260510101521 38 221 8.0 13.0 0.00 0.00 0.00 89 1023.3
20260510100537 39 222 7.0 11.0 0.00 0.00 0.00 88 1023.3
20260510095517 39 223 7.0 11.0 0.00 0.00 0.00 87 1023.2
20260510094520 39 226 7.0 10.0 0.00 0.00 0.00 86 1023.1
20260510093521 40 228 7.0 10.0 0.00 0.00 0.00 86 1022.9
20260510092522 40 227 7.0 9.0 0.00 0.00 0.00 85 1022.8
20260510091521 40 228 6.0 10.0 0.00 0.00 0.00 85 1022.8
20260510090522 40 216 7.0 9.0 0.00 0.00 0.00 84 1022.5
20260510085541 40 210 7.0 10.0 0.00 0.00 0.00 84 1022.3
20260510084558 41 207 9.0 12.0 0.00 0.00 0.00 83 1022.2
20260510083539 41 205 9.0 12.0 0.00 0.00 0.00 82 1022.2
20260510082519 42 203 7.0 13.0 0.00 0.00 0.00 80 1022.2
20260510081519 42 193 8.0 13.0 0.00 0.00 0.00 79 1022.1
20260510080519 42 157 9.0 12.0 0.00 0.00 0.00 77 1022.1
20260510075539 42 157 9.0 13.0 0.00 0.00 0.00 77 1022.0
20260510074516 42 143 9.0 12.0 0.00 0.00 0.00 76 1022.0
20260510073517 43 164 5.0 11.0 0.00 0.00 0.00 73 1021.9
20260510072520 44 126 5.0 11.0 0.00 0.00 0.00 71 1021.9
20260510071523 44 123 4.0 9.0 0.00 0.00 0.00 70 1021.9
20260510070517 44 145 5.0 10.0 0.00 0.00 0.00 67 1021.9
20260510065517 44 292 5.0 8.0 0.00 0.00 0.00 70 1021.6
20260510064537 43 272 6.0 8.0 0.00 0.00 0.00 71 1021.5
20260510063518 44 279 5.0 8.0 0.00 0.00 0.00 71 1021.3
20260510062518 43 255 4.0 8.0 0.00 0.00 0.00 71 1021.3
20260510061518 44 321 2.0 4.0 0.00 0.00 0.00 72 1021.5
20260510060619 45 341 2.0 5.0 0.00 0.00 0.00 69 1021.2
20260510055518 46 112 3.0 5.0 0.00 0.00 0.00 66 1021.1
20260510054518 47 114 4.0 10.0 0.00 0.00 0.00 63 1020.7
20260510053539 48 85 6.0 12.0 0.00 0.00 0.00 59 1020.0
20260510052519 50 80 5.0 10.0 0.00 0.00 0.00 53 1019.7
20260510051519 52 137 8.0 13.0 0.00 0.00 0.00 42 1019.5
20260510050516 51 112 6.0 13.0 0.00 0.00 0.00 41 1019.2
20260510045519 48 141 5.0 7.0 0.00 0.00 0.00 46 1019.3
20260510044519 48 208 5.0 6.0 0.00 0.00 0.00 51 1018.9
20260510043520 49 181 4.0 6.0 0.00 0.00 0.00 49 1018.8
20260510042520 50 145 5.0 7.0 0.00 0.00 0.00 48 1018.9
20260510041520 51 162 7.0 9.0 0.00 0.00 0.00 43 1018.9
20260510040520 50 168 7.0 9.0 0.00 0.00 0.00 45 1018.9
20260510035520 50 154 5.0 7.0 0.00 0.00 0.00 49 1018.9
20260510034521 51 151 5.0 7.0 0.00 0.00 0.00 46 1018.8
20260510033521 52 153 6.0 8.0 0.00 0.00 0.00 44 1018.7
20260510032518 53 166 10.0 15.0 0.00 0.00 0.00 40 1018.6
20260510031541 52 163 7.0 9.0 0.00 0.00 0.00 42 1018.6
20260510030521 53 167 5.0 8.0 0.00 0.00 0.00 41 1018.6
20260510025522 53 188 4.0 8.0 0.00 0.00 0.00 39 1018.4
20260510024522 54 174 3.0 5.0 0.00 0.00 0.00 36 1018.4
20260510023522 54 199 4.0 8.0 0.00 0.00 0.00 35 1018.1
20260510022522 53 264 4.0 8.0 0.00 0.00 0.00 33 1017.9
20260510021536 53 351 4.0 7.0 0.00 0.00 0.00 39 1017.6
20260510020522 54 75 5.0 6.0 0.00 0.00 0.00 37 1017.2
20260510015523 56 94 3.0 6.0 0.00 0.00 0.00 33 1017.0
20260510014524 57 106 6.0 9.0 0.00 0.00 0.00 30 1016.8
20260510013517 57 107 5.0 11.0 0.00 0.00 0.00 30 1016.7
20260510012517 57 103 6.0 14.0 0.00 0.00 0.00 30 1016.6
20260510011518 58 93 8.0 14.0 0.00 0.00 0.00 28 1016.4
20260510010518 59 90 7.0 14.0 0.00 0.00 0.00 29 1016.3
20260510005521 60 83 13.0 19.0 0.00 0.00 0.00 26 1016.2
20260510004518 61 62 10.0 14.0 0.00 0.00 0.00 23 1016.1
20260510003518 62 46 8.0 14.0 0.00 0.00 0.00 18 1016.0
20260510002518 61 70 13.0 20.0 0.00 0.00 0.00 23 1016.0
20260510001519 63 65 14.0 23.0 0.00 0.00 0.00 20 1015.7
20260510000519 64 6 8.0 14.0 0.00 0.00 0.00 18 1015.6
20260509235519 64 41 6.0 9.0 0.00 0.00 0.00 17 1015.6
20260509234519 65 20 8.0 11.0 0.00 0.00 0.00 16 1015.7
20260509233519 65 11 8.0 12.0 0.00 0.00 0.00 17 1015.7
20260509232519 66 356 11.0 17.0 0.00 0.00 0.00 16 1015.6
20260509231537 65 335 7.0 19.0 0.00 0.00 0.00 15 1015.6
20260509230517 66 334 9.0 14.0 0.00 0.00 0.00 15 1015.7